Location: Unspecified
(34.1750°S, 150.8048°E)
Time: 17:41:33
(UTC+11:00)

BlueWalker 3 - Pass Details

Date: 28 September 2023
Orbit: 489 x 504 km, 53.2° (Epoch: 28 November)

Event Time Altitude Azimuth Distance (km) Brightness Sun altitude
Rises 19:51:24 0° 242° (WSW) 2,599 7.0 -23.9°
Reaches altitude 10° 19:54:07 10° 261° (W) 1,703 5.6 -24.5°
Maximum altitude 19:56:45 18° 305° (NW) 1,283 4.3 -25.0°
Enters shadow 19:57:40 16° 323° (NW) 1,336 4.2 -25.1°
